LOWK Airport Information

Runway Information
Runway 10L Length 8924 ft width 148 ft
Elevation 1470 ft Threshold 656 ft Heading 106
Runway 28R Length 8924 ft Width 148 ft
Elevation 1445 ft Threshold 0 ft Heading 286
Runway 10R Length 2427 ft width 90 ft
Elevation 1470 ft Threshold 196 ft Heading 106
Runway 28L Length 2427 ft Width 90 ft
Elevation 1463 ft Threshold 196 ft Heading 286
Airport Frequencies
Type APP Name APP Frequency 126.825 MHZ
Type ATIS Name ATIS Frequency 124.075 MHZ
Type TWR Name TWR Frequency 118.1 MHZ
Airport Navaids
Type VOR-DME Name Klagenfurt Frequency 113100 KHZ
Type NDB Name Klagenfurt Frequency 374 KHZ
Type NDB Name Klagenfurt Frequency 405 KHZ
Type VOR-DME Name Villach Frequency 112900 KHZ
Airport Weather Information & NOTAM
ADDS - METARS form results

(1138 UTC 21 April 2018)
 
METAR text: LOWK 211120Z VRB03KT 9999 FEW050 23/06 Q1020 NOSIG
Conditions at: LOWK (KLAGENFURT(CIV/M, AT) observed 1120 UTC 21 April 2018
Temperature: 23.0°C (73°F)
Dewpoint: 6.0°C (43°F) [RH = 33%]
Pressure (altimeter): 30.12 inches Hg (1020.0 mb)
Winds: variable direction winds at 3 MPH (3 knots; 1.6 m/s)
Visibility: 6 or more miles (10+ km)
Ceiling: at least 12,000 feet AGL
Clouds: few clouds at 5000 feet AGL
Weather: no significant weather observed at this time

METAR text: LOWK 211050Z VRB02KT 9999 FEW045 22/10 Q1021 NOSIG
Conditions at: LOWK (KLAGENFURT(CIV/M, AT) observed 1050 UTC 21 April 2018
Temperature: 22.0°C (72°F)
Dewpoint: 10.0°C (50°F) [RH = 46%]
Pressure (altimeter): 30.15 inches Hg (1021.0 mb)
Winds: variable direction winds at 2 MPH (2 knots; 1.0 m/s)
Visibility: 6 or more miles (10+ km)
Ceiling: at least 12,000 feet AGL
Clouds: few clouds at 4500 feet AGL
Weather: no significant weather observed at this time